Location: Unspecified
(0.0000°N, 0.0000°E)
Time: 00:05:43
(UTC+01:00)

NOSS 3-3 (A) - Visible Passes

Search period start: 19 December 2014 00:00
Search period end: 29 December 2014 00:00
Orbit: 964 x 1249 km, 63.4° (Epoch: 14 December)

Date Brightness Start Highest point End Pass type
(mag) Time Alt. Az. Time Alt. Az. Time Alt. Az.
19 Dec 6.7 04:47:00 10° NE 04:50:55 15° ENE 04:54:51 10° E visible
20 Dec 4.8 05:49:27 10° NNW 05:57:10 70° ENE 06:04:55 10° SSE visible
20 Dec 6.5 19:22:18 10° W 19:25:36 15° WNW 19:28:55 10° NNW visible
21 Dec 5.6 05:05:46 11° N 05:12:34 40° ENE 05:19:42 10° SE visible
22 Dec 6.3 04:23:30 14° NNE 04:27:56 22° ENE 04:33:37 10° ESE visible
22 Dec 4.8 06:11:18 10° NW 06:18:43 48° WSW 06:26:08 10° S visible
23 Dec 6.8 03:41:34 10° NE 03:43:14 11° ENE 03:44:54 10° ENE visible
23 Dec 4.4 05:28:44 22° NNW 05:34:07 84° WSW 05:41:56 10° SSE visible
24 Dec 4.9 04:46:25 36° N 04:49:32 57° ENE 04:57:07 10° SE visible
25 Dec 5.7 04:04:04 31° NE 04:04:55 32° ENE 04:11:38 10° SE visible
25 Dec 5.2 05:51:35 21° WNW 05:55:41 34° WSW 06:02:32 10° S visible
26 Dec 6.6 03:21:40 16° E 03:21:40 16° E 03:25:00 10° ESE visible
26 Dec 4.5 05:09:10 48° WNW 05:11:05 60° WSW 05:18:43 10° S visible
27 Dec 4.5 04:26:43 79° E 04:26:43 79° E 04:34:17 10° SSE visible
27 Dec 6.2 06:14:48 10° W 06:17:23 12° WSW 06:19:57 10° SW visible
28 Dec 5.6 03:44:12 37° ESE 03:44:12 37° ESE 03:49:14 10° SE visible
28 Dec 5.6 05:31:42 23° WSW 05:32:41 24° WSW 05:38:35 10° SSW visible
